User: anonymous   Login
Location: Unspecified
(0.0000°N, 0.0000°E)
Time: 22:35:57
(UTC+00:00)
Language:

COMPASS 1 - Orbit

View from above orbital plane
View from above orbital plane
View from above satellite
View from above satellite

Ground track
Ground track

The orbit data is extracted from the following two-line orbital elements,

1 32787U 08021E   18317.49898125  .00000170  00000-0  21431-4 0  9997
2 32787  97.5183 334.0965 0011614 213.8298 146.2182 14.93171660572239
Epoch (UTC): 13 November 2018 11:58:31
Eccentricity: 0.0011614
inclination: 97.5183°
perigee height: 580 km
apogee height: 596 km
right ascension of ascending node: 334.0965°
argument of perigee: 213.8298°
revolutions per day: 14.93171660
mean anomaly at epoch: 146.2182°
orbit number at epoch: 57223

The dashed part of the orbit path shows where the satellite is in the earth's shadow,  

DLR